FLOCK 3P-40

Last updated on Wed Feb 14 2018 16:20:32 GMT+0000 (Coordinated Universal Time)

1 42010U 17008BQ 18044.93976301 .00001058 00000-0 46696-4 0 9997 2 42010 97.4655 110.5327 0009498 90.5149 269.7177 15.23930770 54579
UTC large
Height (km)
Speed (km/s)
/
Latitude / Longitude
Inclination (degrees)
Orbital Period (minutes)
Azimuth
Elevation
Range (km)
Doppler Factor

Next 0 passes for location: London (51.5072 / 0.1276)

Sorry there are no passes over London.
FLOCK 3P-40